When you browse on this site, cookies collect data to enhance your experience and personalize the content and advertising you see.
Visit our Privacy Policy to learn more. By continuing to use the site, you agree to this use of cookies and data.
  • In Austria
  • List of Countries
  • For 7 days
  • Water Temperature
  • Satellite Maps
  • Weather Map
  • News
  • Weather Widgets
  • user-avatar
    Login

    Hourly Weather Laszkar Gah

    Today, 21 April, Sunday

    Time Temperature Precipitation Wind Pressure Humidity
    00:00 +29°C° 0 mm 2 mps 689 mmHg 22%
    01:00 +29°C° 0 mm 2 mps 689 mmHg 23%
    02:00 +28°C° 0 mm 3 mps 689 mmHg 24%
    03:00 +27°C° 0 mm 3 mps 689 mmHg 26%
    04:00 +27°C° 0 mm 3 mps 688 mmHg 26%
    05:00 +27°C° 0 mm 3 mps 689 mmHg 25%
    06:00 +28°C° 0 mm 3 mps 689 mmHg 24%
    07:00 +29°C° 0 mm 3 mps 690 mmHg 23%
    08:00 +31°C° 0 mm 3 mps 690 mmHg 21%
    09:00 +32°C° 0 mm 2 mps 691 mmHg 18%
    10:00 +35°C° 0 mm 2 mps 691 mmHg 15%
    11:00 +36°C° 0 mm 2 mps 691 mmHg 13%
    12:00 +37°C° 0 mm 3 mps 691 mmHg 12%
    13:00 +38°C° 0 mm 3 mps 691 mmHg 10%
    14:00 +38°C° 0 mm 4 mps 691 mmHg 10%
    15:00 +39°C° 0 mm 5 mps 690 mmHg 9%
    16:00 +39°C° 0 mm 6 mps 690 mmHg 9%
    17:00 +38°C° 0 mm 6 mps 690 mmHg 10%
    18:00 +36°C° 0 mm 6 mps 690 mmHg 11%
    19:00 +34°C° 0 mm 6 mps 690 mmHg 13%
    20:00 +33°C° 0 mm 5 mps 690 mmHg 14%
    21:00 +32°C° 0 mm 4 mps 690 mmHg 16%
    22:00 +30°C° 0 mm 3 mps 691 mmHg 17%
    23:00 +29°C° 0 mm 2 mps 690 mmHg 19%

    Tomorrow, 22 April, Monday

    Time Temperature Precipitation Wind Pressure Humidity
    00:00 +28°C° 0 mm 2 mps 690 mmHg 20%
    01:00 +28°C° 0 mm 1 mps 690 mmHg 21%
    02:00 +27°C° 0 mm 1 mps 690 mmHg 22%
    03:00 +24°C° 0 mm 0 mps 690 mmHg 22%
    04:00 +24°C° 0 mm 0 mps 690 mmHg 22%
    05:00 +27°C° 0 mm 1 mps 691 mmHg 20%
    06:00 +29°C° 0 mm 1 mps 691 mmHg 18%
    07:00 +30°C° 0 mm 2 mps 692 mmHg 16%
    08:00 +31°C° 0 mm 2 mps 692 mmHg 14%
    09:00 +34°C° 0 mm 2 mps 693 mmHg 12%
    10:00 +34°C° 0 mm 1 mps 693 mmHg 11%
    11:00 +36°C° 0 mm 2 mps 693 mmHg 10%
    12:00 +37°C° 0 mm 3 mps 693 mmHg 9%
    13:00 +38°C° 0 mm 3 mps 693 mmHg 8%
    14:00 +38°C° 0 mm 4 mps 692 mmHg 8%
    15:00 +40°C° 0 mm 5 mps 692 mmHg 8%
    16:00 +40°C° 0 mm 5 mps 691 mmHg 8%
    17:00 +39°C° 0 mm 5 mps 691 mmHg 9%
    18:00 +37°C° 0 mm 5 mps 691 mmHg 11%
    19:00 +36°C° 0 mm 5 mps 691 mmHg 12%
    20:00 +35°C° 0 mm 4 mps 692 mmHg 14%
    21:00 +35°C° 0 mm 3 mps 692 mmHg 15%
    22:00 +34°C° 0 mm 3 mps 692 mmHg 17%
    23:00 +32°C° 0.2 mm 2 mps 692 mmHg 20%

    Day after tomorrow, 23 April, Tuesday

    Time Temperature Precipitation Wind Pressure Humidity
    00:00 +31°C° 0.2 mm 2 mps 691 mmHg 23%
    01:00 +30°C° 0.2 mm 2 mps 691 mmHg 26%
    02:00 +30°C° 0.1 mm 2 mps 691 mmHg 27%
    03:00 +29°C° 0.1 mm 1 mps 691 mmHg 28%
    04:00 +29°C° 0.1 mm 1 mps 691 mmHg 29%
    05:00 +29°C° 0 mm 1 mps 691 mmHg 27%
    06:00 +30°C° 0 mm 2 mps 692 mmHg 26%
    07:00 +30°C° 0 mm 2 mps 692 mmHg 24%
    08:00 +31°C° 0.2 mm 2 mps 692 mmHg 23%
    09:00 +32°C° 0.2 mm 1 mps 693 mmHg 22%
    10:00 +33°C° 0.2 mm 1 mps 693 mmHg 21%
    11:00 +35°C° 0 mm 2 mps 693 mmHg 20%
    12:00 +36°C° 0 mm 2 mps 692 mmHg 18%
    13:00 +37°C° 0 mm 3 mps 692 mmHg 17%
    14:00 +38°C° 0 mm 4 mps 691 mmHg 16%
    15:00 +38°C° 0 mm 4 mps 691 mmHg 16%
    16:00 +39°C° 0 mm 5 mps 690 mmHg 15%
    17:00 +37°C° 0.1 mm 5 mps 690 mmHg 16%
    18:00 +36°C° 0.1 mm 4 mps 690 mmHg 18%
    19:00 +35°C° 0.1 mm 3 mps 690 mmHg 19%
    20:00 +33°C° 0 mm 3 mps 691 mmHg 25%
    21:00 +30°C° 0 mm 3 mps 691 mmHg 31%
    22:00 +29°C° 0 mm 3 mps 691 mmHg 38%
    23:00 +29°C° 0.2 mm 3 mps 691 mmHg 37%

    24 April, Wednesday

    Time Temperature Precipitation Wind Pressure Humidity
    00:00 +28°C° 0.2 mm 4 mps 690 mmHg 37%
    01:00 +28°C° 0.2 mm 4 mps 690 mmHg 37%
    02:00 +28°C° 0.3 mm 5 mps 690 mmHg 36%
    03:00 +28°C° 0.3 mm 5 mps 689 mmHg 36%
    04:00 +28°C° 0.3 mm 6 mps 689 mmHg 36%
    05:00 +29°C° 0 mm 6 mps 690 mmHg 34%
    06:00 +29°C° 0 mm 6 mps 690 mmHg 32%
    07:00 +30°C° 0 mm 7 mps 691 mmHg 30%
    08:00 +30°C° 0 mm 7 mps 691 mmHg 30%
    09:00 +31°C° 0 mm 8 mps 692 mmHg 30%
    10:00 +32°C° 0 mm 9 mps 692 mmHg 30%
    11:00 +32°C° 0 mm 9 mps 692 mmHg 28%
    12:00 +32°C° 0 mm 10 mps 692 mmHg 25%
    13:00 +32°C° 0 mm 10 mps 692 mmHg 23%
    14:00 +32°C° 0 mm 10 mps 692 mmHg 21%
    15:00 +31°C° 0 mm 9 mps 692 mmHg 19%
    16:00 +29°C° 0 mm 9 mps 692 mmHg 18%
    17:00 +28°C° 0 mm 8 mps 692 mmHg 18%
    18:00 +27°C° 0 mm 7 mps 693 mmHg 17%
    19:00 +26°C° 0 mm 6 mps 693 mmHg 17%
    20:00 +24°C° 0 mm 6 mps 693 mmHg 20%
    21:00 +25°C° 0 mm 5 mps 694 mmHg 22%
    22:00 +23°C° 0 mm 4 mps 694 mmHg 24%
    23:00 +22°C° 0 mm 4 mps 694 mmHg 27%

    25 April, Thursday

    Time Temperature Precipitation Wind Pressure Humidity
    00:00 +21°C° 0 mm 4 mps 693 mmHg 29%
    01:00 +20°C° 0 mm 4 mps 693 mmHg 32%
    02:00 +20°C° 0 mm 4 mps 693 mmHg 33%
    03:00 +19°C° 0 mm 4 mps 693 mmHg 33%
    04:00 +18°C° 0 mm 4 mps 693 mmHg 34%
    05:00 +19°C° 0 mm 4 mps 694 mmHg 33%
    06:00 +19°C° 0 mm 3 mps 695 mmHg 31%
    07:00 +20°C° 0 mm 3 mps 695 mmHg 30%
    08:00 +21°C° 0 mm 4 mps 696 mmHg 26%
    09:00 +23°C° 0 mm 4 mps 696 mmHg 21%
    10:00 +25°C° 0 mm 5 mps 696 mmHg 17%
    11:00 +26°C° 0 mm 5 mps 696 mmHg 16%
    12:00 +27°C° 0 mm 5 mps 696 mmHg 15%
    13:00 +28°C° 0 mm 5 mps 695 mmHg 14%
    14:00 +28°C° 0 mm 5 mps 695 mmHg 14%
    15:00 +28°C° 0 mm 5 mps 695 mmHg 14%
    16:00 +28°C° 0 mm 5 mps 694 mmHg 14%
    17:00 +27°C° 0 mm 5 mps 694 mmHg 15%
    18:00 +26°C° 0 mm 4 mps 694 mmHg 16%
    19:00 +25°C° 0 mm 4 mps 694 mmHg 17%
    20:00 +25°C° 0 mm 4 mps 695 mmHg 18%
    21:00 +24°C° 0 mm 3 mps 695 mmHg 20%
    22:00 +22°C° 0 mm 3 mps 695 mmHg 21%
    23:00 +22°C° 0 mm 3 mps 694 mmHg 22%

    26 April, Friday

    Time Temperature Precipitation Wind Pressure Humidity
    00:00 +21°C° 0 mm 2 mps 694 mmHg 23%
    01:00 +21°C° 0 mm 2 mps 693 mmHg 24%
    02:00 +20°C° 0 mm 2 mps 693 mmHg 24%
    03:00 +20°C° 0 mm 2 mps 693 mmHg 25%
    04:00 +20°C° 0 mm 2 mps 693 mmHg 25%
    05:00 +20°C° 0 mm 2 mps 694 mmHg 24%
    06:00 +21°C° 0 mm 2 mps 694 mmHg 23%
    07:00 +21°C° 0 mm 2 mps 695 mmHg 23%
    08:00 +23°C° 0 mm 2 mps 695 mmHg 21%
    09:00 +25°C° 0 mm 3 mps 695 mmHg 18%
    10:00 +26°C° 0 mm 3 mps 696 mmHg 16%
    11:00 +27°C° 0 mm 3 mps 695 mmHg 16%
    12:00 +28°C° 0 mm 4 mps 695 mmHg 15%
    13:00 +28°C° 0 mm 4 mps 695 mmHg 14%
    14:00 +29°C° 0 mm 5 mps 694 mmHg 14%
    15:00 +29°C° 0 mm 5 mps 694 mmHg 14%
    16:00 +29°C° 0 mm 5 mps 694 mmHg 14%
    17:00 +28°C° 0 mm 5 mps 694 mmHg 15%
    18:00 +27°C° 0 mm 5 mps 694 mmHg 16%
    19:00 +26°C° 0 mm 5 mps 695 mmHg 17%
    20:00 +26°C° 0 mm 5 mps 695 mmHg 18%
    21:00 +25°C° 0 mm 5 mps 695 mmHg 20%
    22:00 +23°C° 0 mm 5 mps 695 mmHg 21%
    23:00 +22°C° 0 mm 4 mps 695 mmHg 23%
    Show more